Theta_e
349 348 347 347 347 346 347 348 349 349 349 349 349 349 350 350 351 352 353 354 355 355 355 355 355 355 355 354 354 354 354 354 353 352 350 348 347 345 345 345 345 345
348 347 347 347 347 346 346 347 348 349 349 349 349 347 348 349 350 350 351 353 355 355 355 356 355 355 354 354 355 354 354 354 353 352 351 349 348 346 345 344 345 345
348 347 347 346 346 346 346 346 347 349 349 348 348 347 346 347 349 350 349 350 353 355 355 356 356 356 355 354 354 355 354 354 354 353 352 351 350 347 345 345 345 345
347 347 346 346 346 346 345 346 347 347 348 348 348 347 346 346 347 349 350 349 351 353 354 355 355 356 356 355 354 354 354 354 354 354 353 353 352 348 345 345 346 346
347 346 346 346 346 346 345 345 345 346 347 347 347 346 346 345 345 347 349 350 350 351 353 355 356 356 356 356 355 353 354 354 353 354 354 354 354 352 348 346 345 345
347 346 346 346 345 345 345 344 344 345 345 344 344 344 344 344 344 345 347 349 349 350 351 353 355 355 356 357 356 354 353 353 353 354 354 353 354 354 352 350 347 345
347 346 346 346 346 345 345 343 342 343 343 344 343 343 342 343 343 343 345 346 347 349 350 351 353 355 356 356 357 355 352 353 353 353 353 353 354 355 354 353 352 351
347 346 346 346 346 345 345 343 342 340 340 343 344 344 342 342 342 343 344 344 345 347 348 349 351 352 355 356 357 357 353 353 353 353 353 353 353 354 354 355 355 355
347 347 346 346 346 345 345 344 343 340 339 340 343 344 343 341 341 342 344 343 343 345 347 348 349 350 352 354 356 357 356 354 353 353 353 353 353 354 354 354 355 356
348 348 347 347 346 345 345 344 343 341 340 338 340 343 343 342 341 341 343 343 342 344 346 347 349 349 350 351 352 355 357 356 355 353 353 353 353 353 354 354 355 355
348 348 348 348 347 346 345 344 344 342 341 338 338 341 343 342 341 341 342 342 342 343 344 346 347 348 348 349 349 351 353 355 356 355 354 353 353 354 354 354 355 354
349 348 348 348 347 347 347 345 345 344 342 341 339 340 342 342 342 341 341 342 341 342 342 343 345 346 347 348 348 349 349 351 354 355 355 354 353 353 353 353 354 354
349 348 348 349 348 348 347 346 346 345 344 343 342 342 342 343 343 342 341 341 341 341 341 341 343 344 345 346 347 349 349 349 351 353 355 355 354 353 353 352 352 352
349 349 348 349 348 348 348 347 347 346 345 344 343 343 343 343 344 344 343 342 341 341 340 340 342 344 344 345 346 346 348 349 350 351 353 354 355 354 353 353 351 350
349 350 349 349 349 349 348 348 348 347 346 345 344 344 343 343 344 344 344 344 343 342 341 341 342 342 342 343 343 344 345 347 349 351 352 353 355 355 354 354 353 351
350 350 350 350 350 349 349 349 349 348 347 347 346 345 344 344 344 345 345 344 343 343 342 342 342 342 341 341 342 342 342 344 347 349 352 353 355 355 355 355 354 353
350 350 350 351 350 350 350 350 350 349 348 348 347 346 345 345 345 345 345 345 345 344 344 344 344 343 342 342 342 343 343 344 345 348 350 352 354 354 355 355 355 355
350 351 351 351 351 351 351 351 350 350 349 349 348 347 347 346 345 346 346 345 346 346 346 346 345 344 344 343 343 343 343 344 345 347 350 352 353 353 354 354 355 355
350 350 351 351 351 351 351 351 351 351 350 350 349 349 348 347 346 346 345 346 346 347 346 346 346 345 345 345 344 344 344 344 346 347 349 351 352 353 353 353 354 355
350 351 351 351 351 352 351 352 351 351 351 351 350 350 349 348 347 346 346 346 346 346 346 346 346 346 345 345 345 345 344 345 347 348 350 351 351 352 353 353 353 354
351 351 351 352 352 352 352 352 352 352 352 351 351 350 350 349 348 347 347 346 346 346 346 346 346 345 346 346 346 346 346 346 348 349 350 351 352 352 353 353 353 354
353 353 353 353 353 353 353 353 353 352 352 352 351 351 351 350 349 348 348 347 347 346 346 346 346 346 345 346 346 346 347 347 349 350 350 351 352 352 353 353 353 354
355 355 355 355 354 354 354 354 354 353 353 353 352 352 351 351 350 350 349 348 348 347 347 347 347 346 346 346 346 346 347 348 349 350 351 351 352 352 353 353 354 354
358 357 356 356 356 356 356 355 355 355 354 354 353 353 353 352 352 351 351 350 349 348 348 348 347 347 347 346 346 346 347 348 349 350 351 351 351 352 352 353 353 354
358 359 359 358 358 358 357 357 357 356 356 356 355 354 354 353 353 352 352 351 351 350 350 349 349 349 348 348 347 347 347 348 348 349 350 351 351 352 352 353 353 353
356 358 359 360 360 359 359 359 358 358 357 357 356 356 355 355 354 354 353 353 352 352 351 351 350 350 350 349 348 348 348 348 348 349 349 350 351 351 352 352 353 353
Wind_Speed
36 36 35 34 32 30 29 28 27 26 26 25 24 23 21 19 19 19 20 19 19 18 16 15 13 12 12 11 11 12 13 12 11 12 13 13 12 10 9 7 6 5
37 37 36 35 33 32 30 29 29 28 27 26 24 22 20 19 18 19 19 20 20 19 17 16 15 14 13 13 13 13 13 13 12 11 12 13 13 13 12 10 8 6
37 37 37 36 36 34 33 31 30 30 28 26 25 24 22 20 20 19 19 20 20 19 18 17 16 15 14 14 14 14 13 13 12 11 11 12 12 13 13 12 10 9
37 37 38 38 37 36 34 32 31 31 30 29 27 26 23 22 21 21 20 20 20 19 19 17 17 16 15 15 15 15 14 13 12 11 12 11 11 11 12 13 13 11
38 38 38 37 37 36 35 33 32 32 31 31 29 27 25 23 23 23 22 21 20 20 20 19 17 17 16 15 15 16 16 14 12 12 12 12 10 10 11 12 14 14
38 38 38 37 37 36 35 35 34 32 32 31 30 29 27 25 24 23 23 23 22 21 20 20 19 18 18 17 16 17 17 16 14 13 13 13 11 11 11 11 12 13
37 38 37 37 36 36 36 36 35 33 32 31 30 29 28 27 25 24 24 23 23 22 22 21 21 20 19 19 17 17 18 17 16 15 15 14 13 12 11 11 10 11
37 37 37 37 36 36 36 36 36 35 34 32 30 30 29 29 27 26 24 24 23 24 24 23 22 21 20 20 19 18 18 18 17 16 16 16 15 14 13 12 12 12
36 35 36 36 36 36 37 37 37 37 36 34 33 31 30 29 29 27 25 24 24 24 24 24 23 22 21 21 21 20 19 19 19 18 18 17 17 16 15 14 14 14
35 34 34 35 36 36 36 37 36 36 36 36 35 33 31 30 30 29 27 25 25 24 25 25 25 24 22 22 21 21 21 21 20 20 20 19 19 18 18 17 17 17
34 34 34 34 35 36 36 36 36 35 36 36 36 35 34 32 31 31 30 28 27 26 26 26 26 25 24 23 22 22 21 22 22 22 22 22 21 20 20 20 19 19
33 34 34 34 35 35 35 35 35 35 35 36 36 36 36 34 33 32 32 31 30 29 28 27 27 26 26 25 24 23 23 23 23 23 24 24 24 23 23 22 22 21
34 35 35 35 35 35 35 35 35 35 35 35 35 36 36 36 35 34 34 33 32 31 30 29 28 28 28 27 26 25 25 25 25 25 25 25 25 25 24 24 24 23
35 35 36 35 35 35 35 35 35 35 35 35 34 34 35 35 36 36 35 34 33 33 32 31 30 30 30 29 29 27 26 26 26 27 27 27 27 27 26 25 25 25
36 35 35 35 34 34 34 34 34 34 34 34 34 35 35 35 34 34 35 35 35 34 33 32 32 32 32 32 31 30 29 28 28 28 28 28 28 28 28 27 26 25
35 34 34 33 33 33 34 34 34 33 33 33 34 35 35 34 34 33 33 34 34 34 34 33 34 35 35 35 34 32 31 30 29 29 29 29 29 29 29 28 28 27
35 34 34 33 34 34 34 33 33 33 33 33 34 34 34 34 34 33 34 34 34 34 34 34 35 36 36 36 35 34 33 32 31 31 30 30 30 29 30 30 29 28
35 34 34 34 35 34 34 34 34 33 33 33 33 34 34 33 34 34 34 34 34 34 34 35 36 37 37 37 36 35 34 33 33 32 31 31 31 31 31 30 29 29
35 35 35 35 35 36 36 35 34 34 34 34 34 34 33 33 35 35 35 34 34 34 35 36 37 37 37 37 36 36 35 34 34 33 33 32 32 32 32 31 30 29
36 35 36 36 36 36 35 34 34 34 34 34 34 33 33 34 35 35 35 36 35 36 36 37 37 38 37 37 37 36 36 35 34 34 34 34 34 33 33 32 31 30
36 36 36 37 36 36 35 34 35 35 35 34 34 34 34 35 35 35 36 37 37 37 37 37 39 39 38 37 37 37 36 35 35 35 35 35 35 34 34 33 33 32
35 35 36 36 35 34 34 34 34 35 36 35 34 34 34 34 34 35 36 37 37 37 37 38 40 40 39 39 38 37 36 35 35 36 36 36 36 35 34 34 34 33
30 31 32 33 32 31 32 33 34 35 36 35 33 33 33 34 35 35 36 37 37 37 37 39 40 40 40 40 39 38 36 36 36 37 36 36 37 36 35 35 35 34
23 28 29 30 30 30 31 32 32 33 35 35 34 35 35 36 36 35 35 36 36 37 38 39 40 40 40 41 40 39 37 37 37 37 36 37 37 36 35 35 35 35
13 21 27 29 29 30 31 32 32 34 34 34 35 35 36 36 35 33 33 35 36 37 38 39 40 40 40 41 41 39 38 38 37 36 36 36 36 36 35 35 35 36
7 12 19 25 29 31 33 34 35 36 35 34 34 34 34 34 33 33 33 35 36 37 38 39 40 40 39 40 40 39 39 38 37 36 36 36 35 35 34 34 35 36
Wind_Direction
213 214 217 220 223 224 224 224 226 227 228 228 228 229 229 231 229 226 226 227 228 230 232 234 235 235 236 235 236 235 234 238 242 239 237 240 245 247 246 243 240 237
212 214 216 220 223 226 227 228 228 230 232 233 233 234 234 236 235 231 228 228 230 234 236 239 240 239 238 238 239 240 240 242 245 243 240 241 244 247 246 244 243 243
212 213 215 218 222 226 228 229 229 231 233 236 237 238 238 239 239 236 233 231 232 235 238 241 241 239 239 240 241 243 245 247 250 249 244 242 244 246 244 240 242 247
211 213 215 218 221 224 227 229 229 230 232 235 238 239 240 243 243 240 238 237 236 236 237 240 241 240 241 243 243 244 247 252 254 252 248 246 248 249 244 239 242 248
211 213 216 217 220 222 225 228 230 231 232 235 237 238 241 244 245 243 241 240 240 239 239 241 243 243 243 245 247 245 245 251 254 251 248 249 252 254 250 245 245 250
212 214 216 217 219 221 224 227 231 233 233 235 236 237 240 243 245 245 244 243 242 242 242 243 245 246 245 246 249 247 244 247 252 252 250 252 255 256 255 251 249 252
212 214 215 217 218 220 223 227 230 232 234 236 237 238 240 242 243 245 246 245 244 244 245 246 247 247 246 246 248 247 244 245 251 253 253 255 256 256 254 252 252 255
213 214 215 216 217 219 222 225 228 231 233 235 238 240 240 241 242 244 246 246 244 245 245 246 248 248 248 248 249 248 246 245 249 253 255 255 255 255 254 252 255 260
213 214 215 215 216 218 220 223 226 229 231 234 237 240 241 241 241 242 243 244 244 245 245 244 246 247 248 249 251 251 250 248 250 253 256 257 256 256 256 256 257 260
213 214 215 215 216 218 219 221 224 226 229 231 234 238 240 241 241 241 242 242 243 244 244 243 244 246 247 250 251 252 253 252 253 254 256 258 258 258 258 259 259 260
213 213 214 215 216 218 220 221 222 223 226 229 231 234 237 240 240 240 240 241 243 244 245 245 246 247 248 250 252 253 254 254 255 255 256 258 259 260 260 261 262 263
213 214 215 216 217 218 220 221 221 222 224 226 229 231 234 237 239 240 241 242 243 245 246 247 248 250 251 253 253 253 253 254 254 255 256 257 258 261 262 263 264 265
214 215 216 217 218 219 220 221 221 222 223 224 227 229 231 233 236 239 241 242 244 244 245 247 248 249 252 254 255 254 253 252 252 253 254 255 257 259 261 263 265 266
217 217 217 219 220 220 221 222 222 223 223 224 225 227 229 231 233 236 239 241 243 244 246 247 247 248 250 252 253 254 253 252 251 251 252 253 255 257 258 261 263 264
218 218 219 220 220 221 221 222 222 223 224 224 225 227 229 230 232 234 237 239 242 244 245 245 245 247 248 250 251 252 253 253 251 250 249 250 252 254 256 258 259 261
218 218 219 219 220 221 222 222 223 224 224 225 226 227 228 230 231 232 234 236 239 241 242 242 243 245 248 249 250 251 252 252 251 250 249 248 249 250 253 255 257 259
216 217 218 219 220 221 222 223 224 224 224 226 226 227 228 229 230 231 232 234 236 238 240 240 241 243 246 248 249 249 250 250 250 250 249 247 247 248 250 253 255 257
215 216 217 218 220 221 222 223 224 224 224 225 226 227 228 228 229 230 231 232 233 236 238 239 241 243 245 246 248 248 248 247 248 248 247 247 247 248 249 252 253 255
214 215 216 218 220 221 222 222 222 223 224 225 226 227 227 228 229 230 231 231 231 233 236 239 241 243 244 245 246 247 247 246 245 245 246 246 247 248 249 250 251 253
213 214 215 218 220 221 222 221 222 223 224 225 226 227 226 227 228 230 230 231 231 232 234 238 241 242 243 243 244 246 245 244 243 243 244 245 246 247 248 249 251 252
213 214 215 218 219 219 220 221 222 224 225 226 226 226 227 228 228 229 230 231 232 232 233 237 240 242 242 243 243 244 244 243 241 241 242 243 245 246 246 248 250 251
212 213 215 217 219 218 219 220 222 224 225 226 226 226 228 228 229 229 230 231 232 232 232 235 239 241 241 242 243 243 242 240 239 239 239 240 243 245 245 247 249 249
216 215 216 218 218 218 219 221 222 224 226 226 225 226 227 228 229 230 231 231 231 231 231 234 238 240 240 240 241 240 238 237 236 236 237 238 242 244 244 246 247 248
221 220 219 219 220 219 221 223 224 226 227 227 225 226 227 228 229 230 231 232 231 231 232 234 237 239 239 240 240 239 236 235 234 233 234 237 240 242 243 244 246 248
220 222 221 221 221 222 223 225 227 229 230 228 227 227 229 230 230 230 231 232 232 233 233 234 237 239 239 239 240 238 236 234 233 231 232 235 238 240 242 243 245 247
214 221 223 223 224 224 225 227 229 230 230 229 228 228 230 231 231 230 231 232 233 233 234 234 236 238 239 240 240 238 236 234 230 229 230 234 236 237 239 241 243 245